Regional Weather Roundup
Issued by NWS

Home | Current Version | Previous Version | Text Only | Print | Product List | Glossary On
Versions: 1 2 3 4 5 6 7 8 9 10 11 12 13 14 15 16 17 18 19 20 21 22 23 24 25 26 27 28 29 30 31 32 33 34 35 36 37 38 39 40 41 42 43 44 45 46 47 48 49 50
000
ASUS46 KSTO 240415
RWRCA

NORTHERN AND CENTRAL CA REGIONAL WEATHER ROUNDUP
NATIONAL WEATHER SERVICE SACRAMENTO CA
800 PM PST TUE JAN 23 2018

NOTE: FAIR INDICATES FEW OR NO CLOUDS BELOW 12,000 FEET WITH NO
SIGNIFICANT WEATHER AND/OR OBSTRUCTIONS TO VISIBILITY.

CAZ001-003-240500-
NORTHWEST AREA

CITY           SKY/WX    TMP DP  RH WIND       PRES   REMARKS
CRESCENT CITY  LGT RAIN  55  47  74 S20       30.02F
UKIAH          CLOUDY    50  44  80 SE6       30.16F
$$

CAZ006-505>513-240500-
BAY AREA

CITY           SKY/WX    TMP DP  RH WIND       PRES   REMARKS
SANTA ROSA     PTCLDY    46  44  93 CALM      30.17F
SAN RAFAEL     N/A       52  MM  MM MISG
NAPA           CLEAR     50  45  83 E9        30.19S
CONCORD        CLEAR     50  45  83 CALM      30.19F
OAKLAND CITY   N/A      MM  MM  MM MISG
OAKLAND        PTCLDY    51  49  92 CALM      30.19S
SAN FRAN CITY  N/A       52  MM  78 MISG
SAN FRAN ARPT  PTCLDY    52  45  77 W7        30.18F
LIVERMORE      CLEAR     49  46  90 CALM      30.18S
HAYWARD        CLEAR     51  43  74 CALM      30.18S
REDWOOD CITY   N/A       49  MM  87 MISG
MOFFETT ARPT   CLEAR     52  48  86 CALM      30.19S
SAN JOSE ARPT  CLEAR     54  46  74 W3        30.19S
$$
CAZ034-037-514>518-240500-
CENTRAL COAST

CITY           SKY/WX    TMP DP  RH WIND       PRES   REMARKS
WATSONVILLE    CLEAR     48  46  93 NW3       30.19S
SALINAS        CLEAR     50  46  86 CALM      30.19S
MONTEREY       CLEAR     47  44  90 E3        30.19F
SAN LUIS OBISP CLEAR     51  46  83 CALM      30.16S
SANTA MARIA    CLEAR     50  48  93 CALM      30.17S
$$
CAZ015-016-240500-
NORTHERN SACRAMENTO VALLEY

CITY           SKY/WX    TMP DP  RH WIND       PRES   REMARKS
REDDING        CLOUDY    50  44  80 CALM      30.17F
RED BLUFF      CLOUDY    48  43  82 SE5       30.19F
OROVILLE       PTCLDY    47  45  93 E7        30.21F
$$
CAZ016>018-240500-
SOUTHERN SACRAMENTO VALLEY

CITY           SKY/WX    TMP DP  RH WIND       PRES   REMARKS
AUBURN         PTCLDY    43  43 100 CALM      30.19S
BEALE AFB      CLEAR     45  42  86 N3        30.19S
LINCOLN        FAIR     N/A N/A N/A NE3       30.19F
MARYSVILLE     PTCLDY    45  42  89 CALM      30.21S
SAC INTL ARPT  PTCLDY    48  46  93 CALM      30.19F
MATHER AIRPORT MOCLDY    48  45  87 CALM      30.19F
DOWNTOWN SAC   N/A       49  MM  MM MISG
SAC EXEC ARPT  CLEAR     46  45  96 CALM      30.20S
VACAVILLE      CLEAR     48  45  89 SW3       30.21F
TRAVIS AFB     CLEAR     41  41  99 CALM      30.18F
$$
CAZ019>021-240500-
SAN JOAQUIN VALLEY

CITY           SKY/WX    TMP DP  RH WIND       PRES   REMARKS
STOCKTON       CLEAR     49  45  86 SE7       30.19F
MODESTO        CLEAR     50  46  86 S5        30.21S
MERCED         FOG       43  41  93 CALM      30.21S VSB 1/4
LEMOORE        PTCLDY    49  46  90 CALM      30.23S
FRESNO         PTCLDY    50  45  83 W5        30.22F
HANFORD        CLEAR     47  45  93 CALM      30.23S FOG
PORTERVILLE    CLEAR     46  42  86 E5        30.23F
BAKERSFIELD    CLEAR     47  39  74 NE5       30.22S
$$
CAZ011-012-071-240500-
NORTHERN MOUNTAINS

CITY           SKY/WX    TMP DP  RH WIND       PRES   REMARKS
YREKA          MOCLDY    43  32  65 S16       30.04F
MOUNT SHASTA   CLOUDY    38  34  85 SE5       30.11F WCI  34
ALTURAS        MOCLDY    38  26  62 S12       30.09F WCI  30
$$
CAZ011-012-071-240500-
SIERRA NEVADA MTNS

CITY           SKY/WX    TMP DP  RH WIND       PRES   REMARKS
BLUE CANYON    PTCLDY    40  27  59 SE9       30.21F WCI  34
TRUCKEE        PTCLDY    30  23  74 CALM      30.20S
TAHOE VLY ARPT PTCLDY    32  24  72 CALM      30.20S
MAMMOTH LAKES  FAIR      22   9  57 NW3       30.29R
$$




USA.gov is the U.S. government's official web portal to all federal, state and local government web resources and services.